Weather History for Ironwood, MI

Change the Weather History Date:

Sunday, March 2, 2014

  Actual Average Record
Temperature  
Mean Temperature -8 °F -  
Max Temperature 3 °F 26 °F 41 °F (2001)
Min Temperature -18 °F 9 °F -23 °F (2009)
Degree Days  
Heating Degree Days 72    
Moisture  
Dew Point -20 °F    
Average Humidity 55    
Maximum Humidity 77    
Minimum Humidity 43    
Precipitation  
Precipitation 0.00 in - - ()
Sea Level Pressure  
Sea Level Pressure 30.33 in    
Wind  
Wind Speed 9 mph (West)    
Max Wind Speed 15 mph    
Max Gust Speed 18 mph    
Visibility 10 miles    
Events      
Averages and records for this station are not official NWS values.
T = Trace of Precipitation, MM = Missing Value Source: NWS Daily Summary

Daily Weather History Graph

Daily Weather History Graph

Search for Another Location

Airport:

Trip Planner

Search our weather history database for the weather conditions in past years. The results will help you decide how hot, cold, wet, or windy it might be!

Date:

Astronomy

Mar. 02, 2014 Rise Set
Actual Time 6:38 AM CST 5:47 PM CST
Civil Twilight 6:07 AM CST 6:18 PM CST
Nautical Twilight 5:32 AM CST 6:53 PM CST
Astronomical Twilight 4:57 AM CST 7:28 PM CST
Moon 7:02 AM CST (3/2) 7:53 PM CST (3/2)
Length of Visible Light 12h 10m
Length of Day
11h 09m
Waxing Crescent, 3% of the Moon is Illuminated
Mar 2
Waxing Crescent
Mar 8
First Quarter
Mar 16
Full
Mar 23
Last Quarter
Mar 30
New

Hourly Weather History & Observations

Time (CST) Temp. Windchill Dew Point Humidity Pressure Visibility Wind Dir Wind Speed Gust Speed Precip Events Conditions
12:15 AM -14.8 °F -27.2 °F -29.2 °F 48% 30.34 in 10.0 mi West 4.6 mph - N/A   Clear
12:35 AM -14.8 °F -29.1 °F -20.2 °F 77% 30.34 in 10.0 mi West 5.8 mph - N/A   Clear
12:55 AM -14.8 °F -30.8 °F -27.4 °F 53% 30.34 in 10.0 mi WSW 6.9 mph - N/A   Clear
1:15 AM -14.8 °F -27.2 °F -25.6 °F 58% 30.35 in 10.0 mi WSW 4.6 mph - N/A   Clear
1:35 AM -16.6 °F -32.9 °F -27.4 °F 58% 30.35 in 10.0 mi WSW 6.9 mph - N/A   Clear
1:55 AM -16.6 °F -34.4 °F -25.6 °F 64% 30.35 in 10.0 mi West 8.1 mph - N/A   Clear
2:15 AM -16.6 °F -32.9 °F -22.0 °F 76% 30.34 in 10.0 mi WSW 6.9 mph - N/A   Clear
2:35 AM -16.6 °F -32.9 °F -25.6 °F 64% 30.35 in 10.0 mi SW 6.9 mph - N/A   Clear
2:55 AM -16.6 °F -36.8 °F -27.4 °F 58% 30.35 in 10.0 mi WSW 10.4 mph - N/A   Clear
3:15 AM -16.6 °F -35.7 °F -25.6 °F 64% 30.34 in 10.0 mi WSW 9.2 mph - N/A   Clear
3:35 AM -16.6 °F -36.8 °F -23.8 °F 70% 30.35 in 10.0 mi WSW 10.4 mph - N/A   Clear
3:55 AM -18.4 °F -36.6 °F -27.4 °F 63% 30.35 in 10.0 mi West 8.1 mph - N/A   Clear
4:15 AM -16.6 °F -36.8 °F -29.2 °F 53% 30.35 in 10.0 mi WSW 10.4 mph - N/A   Clear
4:35 AM -18.4 °F -37.9 °F -25.6 °F 70% 30.35 in 10.0 mi WSW 9.2 mph - N/A   Clear
4:55 AM -18.4 °F -40.2 °F -27.4 °F 63% 30.34 in 10.0 mi West 11.5 mph - N/A   Clear
5:15 AM -18.4 °F -39.1 °F -29.2 °F 58% 30.35 in 10.0 mi WSW 10.4 mph - N/A   Clear
5:35 AM -18.4 °F -39.1 °F -27.4 °F 63% 30.35 in 10.0 mi West 10.4 mph - N/A   Clear
5:55 AM -18.4 °F -41.2 °F -29.2 °F 58% 30.35 in 10.0 mi WSW 12.7 mph - N/A   Clear
6:15 AM -18.4 °F -39.1 °F -27.4 °F 63% 30.35 in 10.0 mi WSW 10.4 mph - N/A   Clear
6:35 AM -18.4 °F -40.2 °F -27.4 °F 63% 30.34 in 10.0 mi WSW 11.5 mph - N/A   Clear
6:55 AM -18.4 °F -41.2 °F - N/A% 30.34 in 10.0 mi WSW 12.7 mph - N/A   Clear
7:15 AM -18.4 °F -41.2 °F -27.4 °F 63% 30.34 in 10.0 mi WSW 12.7 mph - N/A   Clear
7:35 AM -18.4 °F -42.1 °F -25.6 °F 70% 30.35 in 10.0 mi WSW 13.8 mph - N/A   Clear
7:55 AM -18.4 °F -40.2 °F -25.6 °F 70% 30.35 in 10.0 mi WSW 11.5 mph - N/A   Clear
8:15 AM -16.6 °F -34.4 °F -25.6 °F 64% 30.34 in 10.0 mi WSW 8.1 mph - N/A   Clear
8:35 AM -14.8 °F -34.6 °F -23.8 °F 64% 30.34 in 10.0 mi WSW 10.4 mph - N/A   Clear
8:55 AM -14.8 °F -35.6 °F -23.8 °F 64% 30.34 in 10.0 mi WSW 11.5 mph - N/A   Clear
9:15 AM -13.0 °F -32.4 °F -23.8 °F 59% 30.34 in 10.0 mi West 10.4 mph - N/A   Clear
9:35 AM -11.2 °F -32.1 °F -20.2 °F 64% 30.34 in 10.0 mi West 12.7 mph - N/A   Clear
9:55 AM -9.4 °F -28.9 °F -20.2 °F 59% 30.34 in 10.0 mi West 11.5 mph - N/A   Clear
10:15 AM -9.4 °F -29.8 °F -22.0 °F 54% 30.34 in 10.0 mi West 12.7 mph - N/A   Clear
10:35 AM -7.6 °F -27.5 °F -20.2 °F 54% 30.34 in 10.0 mi West 12.7 mph - N/A   Clear
10:55 AM -7.6 °F -27.5 °F -20.2 °F 54% 30.34 in 10.0 mi West 12.7 mph - N/A   Clear
11:15 AM -5.8 °F -23.4 °F -20.2 °F 50% 30.33 in 10.0 mi West 10.4 mph - N/A   Clear
11:35 AM -5.8 °F -25.2 °F -18.4 °F 55% 30.32 in 10.0 mi WSW 12.7 mph - N/A   Clear
11:55 AM -2.2 °F -20.7 °F -18.4 °F 46% 30.32 in 10.0 mi West 12.7 mph - N/A   Clear
12:15 PM -2.2 °F -21.5 °F -18.4 °F 46% 30.31 in 10.0 mi West 13.8 mph - N/A   Clear
12:35 PM -0.4 °F -19.9 °F -18.4 °F 43% 30.30 in 10.0 mi WSW 15.0 mph - N/A   Clear
12:55 PM -0.4 °F -18.4 °F -16.6 °F 46% 30.30 in 10.0 mi WSW 12.7 mph 16.1 mph N/A   Clear
1:15 PM -0.4 °F -17.6 °F -16.6 °F 46% 30.29 in 10.0 mi West 11.5 mph - N/A   Clear
1:35 PM 1.4 °F -17.6 °F -16.6 °F 43% 30.29 in 10.0 mi West 15.0 mph - N/A   Clear
1:55 PM 1.4 °F -16.1 °F -14.8 °F 47% 30.29 in 10.0 mi WSW 12.7 mph 17.3 mph N/A   Clear
2:15 PM 3.2 °F -13.1 °F -14.8 °F 43% 30.30 in 10.0 mi NW 11.5 mph 16.1 mph N/A   Clear
2:35 PM 3.2 °F -13.1 °F -13.0 °F 47% 30.29 in 10.0 mi NW 11.5 mph 18.4 mph N/A   Clear
2:55 PM 3.2 °F -13.9 °F -13.0 °F 47% 30.29 in 10.0 mi WNW 12.7 mph - N/A   Clear
3:15 PM 3.2 °F -13.9 °F -14.8 °F 43% 30.29 in 10.0 mi WNW 12.7 mph 16.1 mph N/A   Clear
3:35 PM 3.2 °F -12.2 °F -14.8 °F 43% 30.29 in 10.0 mi WNW 10.4 mph - N/A   Clear
3:55 PM 3.2 °F -13.1 °F -14.8 °F 43% 30.29 in 10.0 mi WNW 11.5 mph - N/A   Clear
4:15 PM 3.2 °F -11.3 °F -14.8 °F 43% 30.29 in 10.0 mi WNW 9.2 mph 17.3 mph N/A   Clear
4:35 PM 3.2 °F -11.3 °F -13.0 °F 47% 30.29 in 10.0 mi NW 9.2 mph - N/A   Clear
4:55 PM 3.2 °F -12.2 °F -13.0 °F 47% 30.29 in 10.0 mi WNW 10.4 mph - N/A   Clear
5:15 PM 1.4 °F -14.5 °F -13.0 °F 51% 30.30 in 10.0 mi WNW 10.4 mph - N/A   Clear
5:35 PM 1.4 °F -16.9 °F -14.8 °F 47% 30.31 in 10.0 mi NW 13.8 mph - N/A   Clear
5:55 PM 1.4 °F -12.5 °F -16.6 °F 43% 30.31 in 10.0 mi WNW 8.1 mph - N/A   Clear
6:15 PM 1.4 °F -12.5 °F -16.6 °F 43% 30.31 in 10.0 mi West 8.1 mph - N/A   Clear
6:35 PM -0.4 °F -14.7 °F -16.6 °F 46% 30.32 in 10.0 mi West 8.1 mph - N/A   Clear
6:55 PM -0.4 °F -15.7 °F -18.4 °F 43% 30.32 in 10.0 mi West 9.2 mph - N/A   Clear
7:15 PM -0.4 °F -14.7 °F -13.0 °F 55% 30.32 in 10.0 mi WSW 8.1 mph - N/A   Clear
7:35 PM -2.2 °F -16.8 °F -18.4 °F 46% 30.32 in 10.0 mi West 8.1 mph - N/A   Clear
7:55 PM -2.2 °F -15.6 °F -16.6 °F 50% 30.33 in 10.0 mi WSW 6.9 mph - N/A   Clear
8:15 PM -4.0 °F -19.0 °F -18.4 °F 50% 30.33 in 10.0 mi West 8.1 mph - N/A   Clear
8:35 PM -2.2 °F -16.8 °F -16.6 °F 50% 30.33 in 10.0 mi West 8.1 mph - N/A   Clear
8:55 PM -4.0 °F -17.8 °F -18.4 °F 50% 30.33 in 10.0 mi West 6.9 mph - N/A   Clear
9:15 PM -4.0 °F -19.0 °F -16.6 °F 55% 30.34 in 10.0 mi West 8.1 mph - N/A   Clear
9:35 PM -4.0 °F -16.3 °F -16.6 °F 55% 30.35 in 10.0 mi WSW 5.8 mph - N/A   Clear
9:55 PM -7.6 °F -22.1 °F -20.2 °F 54% 30.35 in 10.0 mi WSW 6.9 mph - N/A   Clear
10:15 PM -7.6 °F -20.6 °F -20.2 °F 54% 30.35 in 10.0 mi WSW 5.8 mph - N/A   Clear
10:35 PM -7.6 °F -23.4 °F -16.6 °F 65% 30.35 in 10.0 mi WSW 8.1 mph - N/A   Clear
10:55 PM -7.6 °F -24.6 °F -20.2 °F 54% 30.35 in 10.0 mi West 9.2 mph - N/A   Clear
11:15 PM -7.6 °F -22.1 °F -14.8 °F 71% 30.35 in 10.0 mi West 6.9 mph - N/A   Clear
11:35 PM -9.4 °F -25.6 °F -20.2 °F 59% 30.36 in 10.0 mi West 8.1 mph - N/A   Clear
11:55 PM -9.4 °F - -18.4 °F 65% 30.36 in 10.0 mi Calm Calm - N/A   Clear